Tin City LRRS, AK

12:58 AM AKDT on April 24, 2018 (GMT -0800)
Tin City | | Change Station

Elev 269 ft 65.56 °N, 167.92 °W | Updated 36 minutes ago

Overcast
Overcast
25 °F
Feels Like 13 °F
N
14
Wind Variable Wind from NNE

Today
High -- | Low -- °F
--% Chance of Precip.
Yesterday
High -- | Low -- °F
Precip. -- in
Pressure 29.35 in
Visibility 6.0 miles
Clouds Scattered Clouds 1800 ft
Mostly Cloudy 4300 ft
Windchill 13 °F
Dew Point 25 °F
Humidity 100%
Rainfall 0.00 in
Snow Depth Not available.
6:58 AM 11:23 PM
Waxing Gibbous, 66% visible
SPECI PATC 240822Z AUTO 02012KT 6SM -SN SCT018 BKN043 M04/M04 A2933 RMK AO2 SLP938 $
Pressure 29.35 in
Visibility 6.0 miles
Clouds Scattered Clouds 1800 ft
Mostly Cloudy 4300 ft
Windchill 13 °F
Dew Point 25 °F
Humidity 100%
Rainfall 0.00 in
Snow Depth Not available.
6:58 AM 11:23 PM
Waxing Gibbous, 66% visible
SPECI PATC 240822Z AUTO 02012KT 6SM -SN SCT018 BKN043 M04/M04 A2933 RMK AO2 SLP938 $

Get Severe Weather Alerts

Thanks for signing up!

Be on the lookout for a verification email in your inbox.

You'll start receiving the daily forecast at 6 AM.

×

10-Day Weather Forecast

Almanac

Astronomy

Apr. 24, 2018 Rise Set
Actual Time
Civil Twilight
Nautical Twilight
Astronomical Twilight
Moon
Length of Visible Light
Length of Day
Tomorrow will be .
, % of the Moon is Illuminated

Today's Extremes

State Highs State Lows

Community

WunderPhotos

Category 6

Welcome to Category 6. This is the collective home for Weather Underground's featured writeups by Dr. Jeff Masters (right), Bob Henson (left), Chris Burt, and other regular contributors.

Nearby

Air Quality

  Air Quality AQ Index Pollutant
Not available.

Snow Depth

Station Depth Elevation

Earthquake Activity

City Distance Mag. Time & Date
Minimum magnitude displayed is 2.5.

Coastal Water Temperatures

Place Temperature

Stations

Nearby Weather Stations

Station Location Temp. Windchill Dew Point Humidity Wind Precip. Elev Updated Type
                   

Watches & Warnings

There are currently no watches in effect.